Temp_Advection
nan nan nan nan nan nan nan nan nan nan nan nan nan nan nan nan nan nan nan nan nan nan
nan 0 0 0 0 0 0 0 0 0 -0 -0 0 0 0 0 0 -0 0 0 0 nan
nan 0 0 0 0 0 0 0 0 -0 -0 -0 -0 0 0 0 0 -0 0 0 -0 nan
nan 0 0 0 0 0 0 -0 0 0 0 -0 -0 -0 0 0 0 0 0 0 -0 nan
nan 0 0 0 0 0 0 0 0 0 -0 -0 -0 0 0 0 0 0 0 1 0 nan
nan 0 0 0 0 0 0 0 0 0 -0 0 0 0 0 -0 0 0 0 -0 0 nan
nan 0 0 0 1 0 0 0 0 -0 -0 0 0 0 0 0 0 0 0 0 0 nan
nan 1 1 0 1 0 0 0 0 0 0 0 1 0 0 0 0 0 0 0 0 nan
nan 1 0 0 1 0 0 0 0 0 0 0 0 0 0 0 0 0 0 0 0 nan
nan 0 0 0 0 0 0 0 0 0 0 0 0 0 0 0 0 1 0 0 0 nan
nan 0 -0 -0 0 0 0 0 0 0 0 0 1 0 0 0 0 1 0 0 0 nan
nan -0 0 0 0 0 0 0 0 0 0 1 0 0 0 0 1 1 0 0 0 nan
nan -0 -0 0 0 0 0 0 0 0 1 1 0 0 1 1 0 1 0 0 0 nan
nan nan nan nan nan nan nan nan nan nan nan nan nan nan nan nan nan nan nan nan nan nan
Wind_Speed
6 6 8 10 11 9 10 11 14 14 13 10 13 15 18 15 14 14 15 16 9 15
6 7 9 8 8 8 11 11 11 14 10 9 16 16 17 17 15 19 17 16 15 14
8 7 7 7 8 10 11 12 11 12 12 12 11 13 15 17 17 18 18 14 13 13
8 10 8 7 9 10 12 11 12 12 13 13 12 14 17 18 19 18 17 12 16 19
14 10 9 8 9 11 13 11 13 14 13 12 14 16 17 15 15 16 15 20 14 14
15 12 10 11 11 12 11 14 13 13 12 13 14 18 12 12 13 15 13 13 18 22
15 12 10 12 14 13 13 14 13 13 13 15 15 13 12 12 12 14 14 17 15 18
15 14 14 12 15 15 15 17 13 14 15 17 19 14 15 15 17 18 15 14 16 18
12 11 10 15 20 17 16 14 15 15 16 17 15 17 20 17 17 15 15 15 19 21
12 10 19 15 15 15 17 18 18 17 16 18 18 21 20 16 16 18 14 17 18 19
11 12 11 15 16 17 18 18 19 19 18 17 19 18 19 18 21 19 15 19 19 15
9 10 18 16 15 17 20 20 20 19 19 17 16 16 20 21 21 18 18 18 15 13
13 15 16 18 18 18 19 19 19 19 19 17 17 19 23 23 20 20 18 15 13 13
10 18 16 19 19 20 20 18 18 23 21 21 22 22 21 18 17 20 17 15 13 10
Wind_Direction
214 271 274 291 293 299 296 293 300 306 313 321 280 283 289 286 307 308 304 299 294 281
237 271 258 264 291 300 295 290 291 302 308 297 286 298 289 304 304 300 299 266 277 285
249 256 242 277 293 300 290 300 306 305 298 282 289 299 302 299 295 294 295 289 285 276
252 226 242 270 282 293 292 309 300 294 290 295 294 291 293 295 303 299 298 295 273 298
211 216 229 236 267 270 298 299 297 296 297 301 299 291 286 291 293 292 286 283 299 288
208 217 223 254 267 275 291 292 299 293 291 292 290 298 302 299 288 289 308 308 294 304
216 221 240 256 268 274 285 288 301 293 292 283 293 281 275 276 277 290 297 301 306 304
234 233 254 274 269 283 279 297 301 299 295 286 290 280 270 264 289 291 284 295 297 295
224 243 245 285 270 278 288 293 287 290 289 290 285 277 285 275 296 299 297 292 291 292
235 231 303 295 281 279 280 280 283 288 284 285 276 280 281 277 299 288 296 296 291 291
247 307 294 278 282 285 285 284 283 284 286 278 277 279 282 287 291 288 296 293 297 290
309 277 283 284 283 284 285 284 280 280 282 266 270 283 281 288 285 291 301 301 295 289
279 304 286 279 286 282 280 281 284 284 270 266 264 273 278 279 284 293 300 295 292 284
311 275 285 284 281 279 282 284 279 280 274 270 277 278 278 286 292 301 293 296 293 279
Height
1542 1544 1544 1544 1543 1542 1542 1542 1540 1537 1535 1534 1533 1531 1529 1528 1528 1527 1525 1524 1524 1523
1539 1539 1540 1539 1539 1538 1538 1538 1536 1533 1532 1532 1529 1528 1526 1525 1524 1523 1521 1521 1519 1520
1535 1535 1536 1536 1535 1534 1535 1533 1531 1530 1529 1528 1527 1525 1524 1523 1522 1520 1518 1518 1518 1515
1530 1531 1532 1532 1531 1531 1531 1530 1528 1527 1526 1525 1524 1524 1522 1521 1519 1518 1515 1514 1513 1511
1527 1529 1531 1529 1528 1529 1527 1526 1525 1525 1523 1522 1522 1519 1518 1517 1516 1516 1513 1511 1509 1507
1524 1525 1527 1529 1528 1527 1525 1523 1522 1521 1520 1519 1517 1515 1514 1513 1510 1508 1509 1509 1506 1503
1522 1524 1524 1524 1525 1524 1522 1521 1518 1518 1517 1515 1513 1512 1511 1509 1508 1508 1504 1504 1502 1500
1521 1520 1521 1520 1521 1520 1518 1517 1515 1515 1514 1512 1510 1508 1507 1506 1504 1503 1502 1500 1498 1496
1517 1517 1515 1517 1514 1515 1514 1513 1512 1511 1510 1508 1504 1503 1502 1500 1500 1499 1498 1496 1493 1491
1513 1512 1513 1511 1513 1509 1508 1509 1507 1506 1505 1504 1501 1500 1498 1496 1495 1495 1493 1491 1488 1486
1509 1509 1509 1508 1507 1508 1506 1504 1503 1502 1501 1499 1497 1496 1495 1492 1491 1491 1488 1486 1484 1481
1510 1508 1508 1506 1503 1501 1501 1499 1496 1495 1494 1492 1491 1491 1492 1488 1487 1486 1483 1481 1479 1477
1506 1508 1507 1501 1498 1496 1494 1493 1492 1489 1489 1488 1487 1487 1487 1486 1482 1481 1478 1476 1475 1473
1502 1501 1499 1497 1494 1490 1487 1486 1486 1484 1483 1483 1482 1482 1482 1481 1478 1476 1473 1472 1471 1469